This is the latest recevied weather packets stored in our database for station/object VK6HGR-1. If no packets are shown the sender has not sent any weather packets the latest 10 day(s).
| Time | Temp. | Humidity | Pressure | Rain* | Wind** | Luminosity | Snow |
|---|---|---|---|---|---|---|---|
| 1777721415 | 16.11° C | 58% | 1022 hPa | - | - | - | - |
| 1777720512 | 16.67° C | 58% | 1022 hPa | - | - | - | - |
| 1777719612 | 16.67° C | 57% | 1021.9 hPa | - | - | - | - |
| 1777718711 | 16.67° C | 56% | 1021.8 hPa | - | - | - | - |
| 1777717812 | 16.67° C | 53% | 1021.7 hPa | - | - | - | - |
| 1777716911 | 17.22° C | 53% | 1021.6 hPa | - | - | - | - |
| 1777716015 | 17.22° C | 52% | 1021.4 hPa | - | - | - | - |
| 1777715110 | 17.22° C | 51% | 1021.2 hPa | - | - | - | - |
| 1777714211 | 17.22° C | 51% | 1021.1 hPa | - | - | - | - |
| 1777713313 | 17.78° C | 51% | 1021.1 hPa | - | - | - | - |
| 1777712411 | 17.78° C | 49% | 1021.1 hPa | - | - | - | - |
| 1777711523 | 18.33° C | 48% | 1021 hPa | - | - | - | - |
| 1777710611 | 18.33° C | 48% | 1020.9 hPa | - | - | - | - |
| 1777709710 | 18.33° C | 47% | 1020.9 hPa | - | - | - | - |
| 1777708811 | 18.89° C | 46% | 1020.9 hPa | - | - | - | - |
| 1777707912 | 18.89° C | 46% | 1020.9 hPa | - | - | - | - |
| 1777707011 | 18.89° C | 46% | 1020.9 hPa | - | - | - | - |
| 1777706112 | 18.89° C | 46% | 1020.9 hPa | - | - | - | - |
| 1777705213 | 18.89° C | 47% | 1021 hPa | - | - | - | - |
| 1777704313 | 19.44° C | 45% | 1021 hPa | - | - | - | - |
| 1777703413 | 19.44° C | 46% | 1021 hPa | - | - | - | - |
| 1777702511 | 18.89° C | 46% | 1021.1 hPa | - | - | - | - |
| 1777701612 | 18.89° C | 47% | 1021.3 hPa | - | - | - | - |
| 1777700711 | 18.33° C | 48% | 1021.5 hPa | - | - | - | - |
| 1777699813 | 18.89° C | 47% | 1021.6 hPa | - | - | - | - |
* Rain since midnight (hover to see other rain measurements)
** Current wind speed in m/s (hover to see current wind gust speed)